Weather History for Eastman, GA

Change the Weather History Date:

Friday, November 2, 2012

  Actual Average Record
Temperature  
Mean Temperature 57 °F -  
Max Temperature 80 °F 75 °F 77 °F (2013)
Min Temperature 34 °F 52 °F 30 °F (2014)
Degree Days  
Heating Degree Days 8    
Growing Degree Days 7 (Base 50)    
Moisture  
Dew Point 38 °F    
Average Humidity 54    
Maximum Humidity 92    
Minimum Humidity 24    
Precipitation  
Precipitation 0.00 in - - ()
Sea Level Pressure  
Sea Level Pressure 30.02 in    
Wind  
Wind Speed 3 mph ()    
Max Wind Speed 14 mph    
Max Gust Speed 24 mph    
Visibility 10.0 miles    
Events      
Averages and records for this station are not official NWS values.
T = Trace of Precipitation, MM = Missing Value Source: Averaged Metar Reports

Daily Weather History Graph

Daily Weather History Graph

Search for Another Location

Airport:

Trip Planner

Search our weather history database for the weather conditions in past years. The results will help you decide how hot, cold, wet, or windy it might be!

Date:

Astronomy

Nov. 02, 2012 Rise Set
Actual Time 7:50 AM EDT 6:41 PM EDT
Civil Twilight 7:25 AM EDT 7:06 PM EDT
Nautical Twilight 6:56 AM EDT 7:35 PM EDT
Astronomical Twilight 6:27 AM EDT 8:04 PM EDT
Moon 9:34 PM EDT (11/2) 11:03 AM EDT (11/2)
Length of Visible Light 11h 41m
Length of Day
10h 50m
Waning Gibbous, 87% of the Moon is Illuminated
Nov 2
Waning Gibbous
Nov 6
Last Quarter
Nov 13
New
Nov 20
First Quarter
Nov 28
Full

Hourly Weather History & Observations

Time (EDT) Temp. Dew Point Humidity Pressure Visibility Wind Dir Wind Speed Gust Speed Precip Events Conditions
12:15 AM 40.5 °F 32.0 °F 72% 30.03 in 10.0 mi Calm Calm - N/A   Clear
12:35 AM 39.7 °F 32.4 °F 75% 30.03 in 10.0 mi Calm Calm - N/A   Clear
12:55 AM 39.4 °F 32.4 °F 76% 30.02 in 10.0 mi Calm Calm - N/A   Clear
1:15 AM 39.4 °F 32.0 °F 75% 30.03 in 10.0 mi Calm Calm - N/A   Clear
1:35 AM 38.7 °F 32.7 °F 79% 30.03 in 10.0 mi Calm Calm - N/A   Clear
1:55 AM 37.8 °F 32.0 °F 80% 30.03 in 10.0 mi Calm Calm - N/A   Clear
2:15 AM 39.4 °F 31.5 °F 73% 30.03 in 10.0 mi Calm Calm - N/A   Clear
2:35 AM 37.9 °F 31.8 °F 79% 30.03 in 10.0 mi Calm Calm - N/A   Clear
2:55 AM 37.9 °F 32.0 °F 79% 30.02 in 10.0 mi Calm Calm - N/A   Clear
3:15 AM 37.4 °F 31.5 °F 79% 30.03 in 10.0 mi Calm Calm - N/A   Clear
3:35 AM 36.7 °F 31.1 °F 80% 30.03 in 10.0 mi Calm Calm - N/A   Clear
3:55 AM 36.7 °F 30.7 °F 79% 30.03 in 10.0 mi Calm Calm - N/A   Clear
4:15 AM 37.9 °F 34.0 °F 86% 30.03 in 10.0 mi Calm Calm - N/A   Clear
4:35 AM 38.3 °F 33.8 °F 84% 30.03 in 10.0 mi Calm Calm - N/A   Clear
4:55 AM 37.0 °F 32.7 °F 84% 30.03 in 10.0 mi Calm Calm - N/A   Clear
5:15 AM 35.6 °F 32.0 °F 87% 30.04 in 10.0 mi Calm Calm - N/A   Clear
5:35 AM 35.4 °F 32.0 °F 87% 30.05 in 10.0 mi Calm Calm - N/A   Clear
5:55 AM 36.1 °F 32.0 °F 85% 30.05 in 10.0 mi Calm Calm - N/A   Clear
6:15 AM 35.8 °F 32.0 °F 86% 30.05 in 10.0 mi Calm Calm - N/A   Clear
6:35 AM 36.1 °F 32.0 °F 85% 30.05 in 10.0 mi Calm Calm - N/A   Clear
6:55 AM 35.4 °F 32.2 °F 88% 30.05 in 10.0 mi Calm Calm - N/A   Clear
7:15 AM 35.6 °F 32.0 °F 87% 30.05 in 10.0 mi Calm Calm - N/A   Clear
7:35 AM 35.1 °F 32.0 °F 89% 30.05 in 10.0 mi Calm Calm - N/A   Clear
7:55 AM 34.2 °F 32.0 °F 92% 30.05 in 10.0 mi Calm Calm - N/A   Clear
8:15 AM 35.4 °F 32.0 °F 87% 30.06 in 10.0 mi Calm Calm - N/A   Clear
8:35 AM 37.9 °F 34.5 °F 87% 30.07 in 10.0 mi Calm Calm - N/A   Clear
8:55 AM 43.2 °F 36.3 °F 77% 30.07 in 10.0 mi Calm Calm - N/A   Clear
9:15 AM 48.6 °F 36.5 °F 63% 30.07 in 10.0 mi Calm Calm - N/A   Clear
9:35 AM 54.5 °F 36.7 °F 51% 30.08 in 10.0 mi Calm Calm - N/A   Clear
9:55 AM 58.6 °F 36.7 °F 44% 30.08 in 10.0 mi WSW 3.5 mph - N/A   Clear
10:15 AM 61.9 °F 37.0 °F 40% 30.07 in 10.0 mi Calm Calm - N/A   Clear
10:35 AM 64.6 °F 36.9 °F 36% 30.08 in 10.0 mi West 6.9 mph - N/A   Clear
10:55 AM 66.6 °F 36.7 °F 33% 30.08 in 10.0 mi West 6.9 mph - N/A   Clear
11:15 AM 68.7 °F 36.9 °F 31% 30.08 in 10.0 mi WNW 10.4 mph - N/A   Clear
11:35 AM 69.3 °F 36.7 °F 30% 30.08 in 10.0 mi WNW 6.9 mph - N/A   Clear
11:55 AM 70.7 °F 37.4 °F 30% 30.07 in 10.0 mi West 9.2 mph - N/A   Clear
12:15 PM 72.0 °F 37.6 °F 29% 30.07 in 10.0 mi WNW 10.4 mph - N/A   Clear
12:35 PM 73.2 °F 38.3 °F 28% 30.05 in 10.0 mi West 11.5 mph 18.4 mph N/A   Clear
12:55 PM 74.3 °F 38.3 °F 27% 30.04 in 10.0 mi West 9.2 mph 18.4 mph N/A   Clear
1:15 PM 75.9 °F 39.6 °F 27% 30.02 in 10.0 mi West 12.7 mph 19.6 mph N/A   Clear
1:35 PM 76.3 °F 40.1 °F 27% 30.01 in 10.0 mi West 9.2 mph 17.3 mph N/A   Clear
1:55 PM 76.8 °F 39.9 °F 27% 30.00 in 10.0 mi West 12.7 mph 18.4 mph N/A   Clear
2:15 PM 77.2 °F 40.1 °F 26% 29.99 in 10.0 mi West 12.7 mph 17.3 mph N/A   Clear
2:35 PM 78.8 °F 40.1 °F 25% 29.98 in 10.0 mi West 13.8 mph 18.4 mph N/A   Clear
2:55 PM 79.0 °F 39.4 °F 24% 29.97 in 10.0 mi West 13.8 mph 19.6 mph N/A   Clear
3:15 PM 79.0 °F 39.2 °F 24% 29.97 in 10.0 mi West 12.7 mph 19.6 mph N/A   Clear
3:35 PM 79.3 °F 39.4 °F 24% 29.96 in 10.0 mi West 10.4 mph 19.6 mph N/A   Clear
3:55 PM 80.1 °F 40.1 °F 24% 29.96 in 10.0 mi WNW 12.7 mph 17.3 mph N/A   Clear
4:15 PM 80.1 °F 40.1 °F 24% 29.96 in 10.0 mi West 11.5 mph 19.6 mph N/A   Clear
4:35 PM 79.7 °F 39.9 °F 24% 29.96 in 10.0 mi WNW 13.8 mph 18.4 mph N/A   Clear
4:55 PM 79.3 °F 39.7 °F 24% 29.96 in 10.0 mi West 12.7 mph 24.2 mph N/A   Clear
5:15 PM 79.2 °F 40.3 °F 25% 29.96 in 10.0 mi West 12.7 mph - N/A   Clear
5:35 PM 78.6 °F 41.0 °F 26% 29.96 in 10.0 mi WNW 8.1 mph - N/A   Clear
5:55 PM 77.7 °F 41.4 °F 27% 29.96 in 10.0 mi West 10.4 mph - N/A   Clear
6:15 PM 76.3 °F 42.1 °F 29% 29.96 in 10.0 mi West 5.8 mph - N/A   Clear
6:35 PM 74.7 °F 43.2 °F 32% 29.97 in 10.0 mi West 5.8 mph - N/A   Clear
6:55 PM 73.0 °F 44.4 °F 36% 29.97 in 10.0 mi West 3.5 mph - N/A   Clear
7:15 PM 71.2 °F 45.3 °F 39% 29.97 in 10.0 mi West 3.5 mph - N/A   Clear
7:35 PM 70.7 °F 45.3 °F 40% 29.97 in 10.0 mi WSW 3.5 mph - N/A   Clear
7:55 PM 69.3 °F 46.0 °F 43% 29.98 in 10.0 mi West 3.5 mph - N/A   Clear
8:15 PM 67.6 °F 46.6 °F 47% 29.99 in 10.0 mi West 3.5 mph - N/A   Clear
8:35 PM 65.5 °F 47.5 °F 52% 29.99 in 10.0 mi West 3.5 mph - N/A   Clear
8:55 PM 65.7 °F 47.3 °F 51% 29.99 in 10.0 mi WSW 3.5 mph - N/A   Clear
9:15 PM 63.3 °F 47.7 °F 57% 29.99 in 10.0 mi Calm Calm - N/A   Clear
9:35 PM 62.8 °F 48.2 °F 59% 30.00 in 10.0 mi Calm Calm - N/A   Clear
9:55 PM 64.4 °F 47.7 °F 55% 30.00 in 10.0 mi West 4.6 mph - N/A   Clear
10:15 PM 65.7 °F 48.0 °F 53% 30.01 in 10.0 mi WSW 3.5 mph - N/A   Clear
10:35 PM 66.2 °F 47.8 °F 52% 30.02 in 10.0 mi WSW 4.6 mph - N/A   Clear
10:55 PM 64.9 °F 48.2 °F 55% 30.02 in 10.0 mi WSW 3.5 mph - N/A   Clear
11:35 PM 62.1 °F 49.1 °F 62% 30.02 in 10.0 mi Calm Calm - N/A   Clear
11:55 PM 63.7 °F 49.3 °F 59% 30.03 in 10.0 mi Calm Calm - N/A   Clear